Voltar ao catálogo

ARIANE 44LP DEB

SPELDA

AtivoHEO
NORAD 26471·DEBRIS·🇫🇷 France

Lançado Aug 17, 2000 de Guiana Space Centre

Loading…

Próximas Passagens (próximas 24 horas)

TLE

AtualizadoSource: Space-Track

Época: Sep 14, 2026, 12:17 UTC

1 26471U 00046C   26257.51239293  .00000196  00000-0  76563-3 0  9992
2 26471   3.5144  94.5936 5493277 209.1227 104.2030  4.53347638356877

Acompanhe ARIANE 44LP DEB em tempo real com AllMySat

Download on the App Store